Wind_Speed
24 25 25 24 24 24 24 23 23 23 22 21 21 20 19 19 19 18 18 18 17 17 16 15 15 15 15 16 15 14 14 14 15 16 12 8 11 17 19 22 24 27 29 28 27 23 20 17 13 11 11 9 6 5 6 10 9 7 5 5 2 3 4 4 7 11 15 16 16 16 13 11 13 15 14 11 7 4 8 7 7 9 7 7 11 15 17 18
24 24 25 25 25 24 24 24 23 23 22 22 21 21 20 19 19 18 18 18 18 18 17 16 15 15 15 16 15 14 13 13 13 13 12 11 13 14 16 21 25 27 29 29 28 24 20 15 14 14 13 11 7 8 7 7 9 7 6 9 6 5 7 9 9 11 14 13 12 17 16 10 8 11 14 14 11 11 10 10 11 10 10 12 16 17 17 17
22 23 24 24 25 25 25 24 24 24 23 23 22 21 21 20 19 19 18 18 18 18 18 17 16 16 16 16 15 15 13 12 11 10 12 12 12 13 15 19 24 26 26 28 26 23 19 12 13 15 14 13 10 10 9 8 9 7 10 12 6 8 8 9 10 9 11 11 11 17 17 11 7 10 13 11 12 13 11 9 9 8 10 16 18 17 18 17
20 21 22 23 23 24 24 24 25 24 24 23 22 22 21 21 20 20 19 19 19 18 18 17 16 16 17 16 16 15 14 13 10 9 10 9 10 12 13 17 21 23 23 26 26 24 20 17 17 16 14 15 12 12 13 12 11 11 14 13 5 6 6 4 9 10 10 13 13 15 16 10 8 13 13 11 15 14 9 5 4 4 8 16 20 18 18 17
19 19 20 21 22 22 23 24 24 24 24 24 23 23 22 22 21 20 20 20 20 19 19 18 17 17 17 17 16 15 15 13 7 3 5 5 7 10 12 15 19 20 22 25 27 26 23 22 20 19 18 16 13 15 17 14 12 13 16 14 7 8 8 3 8 13 13 16 14 12 15 12 10 15 13 13 19 13 7 4 3 4 5 11 17 17 18 17
19 18 19 19 20 21 21 22 23 24 24 24 24 23 23 23 22 21 21 20 21 20 20 18 17 18 18 17 16 15 14 11 5 2 2 2 5 9 11 14 18 20 23 26 27 27 26 25 24 23 22 19 17 18 16 14 13 15 16 16 16 16 13 5 9 12 13 17 15 13 17 14 8 15 14 16 22 17 12 5 1 3 5 7 13 16 18 17
20 19 19 19 19 20 20 20 21 22 22 23 23 23 24 23 23 22 21 21 21 21 21 19 19 18 19 19 17 15 13 10 8 7 4 5 6 8 11 14 17 21 24 26 27 28 27 27 27 25 24 22 21 19 16 14 13 17 19 18 18 18 15 10 12 12 10 15 17 15 17 15 8 12 15 16 23 19 14 10 4 5 8 8 11 14 17 18
22 21 20 19 19 19 19 20 20 21 21 22 22 22 23 23 24 23 23 22 21 23 22 20 20 19 19 19 18 16 13 9 8 8 6 7 8 10 12 15 18 21 24 25 26 26 27 28 28 26 26 25 21 19 17 12 15 20 21 19 18 18 16 12 14 17 12 12 19 15 13 16 10 10 16 18 23 20 15 14 11 8 9 10 11 13 17 19
23 22 22 21 20 20 19 19 19 20 20 20 21 21 22 23 23 23 23 22 22 23 23 22 21 21 21 20 20 15 8 5 6 5 5 7 9 10 12 15 18 21 23 24 24 25 27 28 27 26 27 24 21 20 17 15 19 19 19 17 16 18 18 16 17 22 18 12 19 16 11 16 13 12 17 19 20 19 17 17 13 10 8 9 12 13 16 19
24 23 23 22 21 21 20 19 19 19 19 19 20 21 22 22 22 23 23 23 23 24 24 23 22 23 22 21 22 13 3 3 6 8 8 8 9 10 10 13 18 21 23 24 25 26 27 25 23 24 24 23 23 21 18 20 21 17 19 19 16 18 20 19 22 24 25 19 19 17 12 16 16 15 19 18 16 16 17 18 14 10 7 8 13 14 16 18
24 24 23 23 23 22 21 20 19 19 19 19 19 20 21 22 22 22 22 22 23 24 25 24 24 25 23 23 23 13 7 8 10 12 12 10 9 8 9 11 16 21 23 25 26 26 25 22 21 23 24 24 24 22 21 22 21 21 22 20 19 18 18 18 24 25 26 25 21 17 14 17 18 17 18 16 15 15 17 17 15 11 8 8 13 15 17 18
24 24 24 23 23 23 23 22 21 20 19 18 19 19 20 21 22 22 21 21 22 24 25 24 25 25 25 25 14 5 8 11 11 14 16 11 7 9 10 8 11 19 22 24 25 24 23 21 23 26 26 25 24 21 22 22 23 25 23 21 20 17 16 16 23 25 25 26 24 18 15 18 19 18 16 16 17 16 16 15 14 11 9 9 14 16 17 18
24 24 24 24 23 23 23 23 22 21 19 19 18 19 20 20 22 23 20 19 22 24 24 24 25 26 28 19 6 9 11 12 13 17 18 11 8 10 10 7 7 15 20 23 23 23 22 22 26 28 24 23 24 22 21 22 23 24 22 21 19 18 17 15 20 25 28 30 28 21 20 21 20 18 15 17 20 20 18 15 14 12 9 10 14 16 17 19
24 24 24 24 24 23 24 24 23 22 20 19 19 19 20 20 23 23 21 20 22 23 23 24 24 26 27 10 11 14 15 17 17 16 16 12 9 10 11 10 8 14 20 22 23 22 21 22 25 27 25 23 23 23 23 22 21 21 20 20 20 21 18 14 14 24 32 34 31 25 22 22 21 19 17 20 23 22 19 17 16 14 10 11 13 15 18 19
23 23 24 24 24 24 24 25 25 23 21 20 20 19 20 21 23 22 22 21 22 22 22 24 24 27 25 8 11 16 18 18 14 11 14 14 9 9 10 12 11 13 20 23 23 22 22 24 25 27 27 25 22 21 24 24 23 21 20 21 20 20 17 15 12 20 33 34 32 28 21 19 21 21 19 21 24 23 21 19 18 16 12 11 12 14 18 18
22 23 23 24 24 24 24 25 25 24 22 22 21 20 20 23 23 22 22 22 22 22 22 23 23 26 23 9 10 18 18 16 11 11 17 18 13 9 8 10 10 10 18 24 25 25 25 25 26 28 28 27 25 24 23 23 25 24 22 22 20 19 18 16 13 18 31 31 32 33 22 19 25 23 21 23 24 25 24 22 20 18 15 13 11 12 18 18
23 22 22 22 23 24 24 25 25 24 23 24 23 21 22 24 24 22 22 22 23 23 23 24 23 25 21 12 11 12 10 11 12 13 18 20 15 11 12 13 12 10 14 21 25 27 28 25 25 27 29 30 29 25 23 25 28 28 25 24 23 21 19 19 16 16 28 31 33 35 25 21 27 24 24 26 26 26 25 24 21 19 18 16 11 11 17 17
24 23 22 21 22 23 25 25 25 24 23 24 25 24 24 25 25 24 24 24 24 23 24 24 24 24 18 12 13 11 9 11 14 14 17 19 15 14 18 17 15 13 14 18 23 27 29 28 25 26 29 31 31 29 28 29 31 30 27 25 23 23 22 23 22 15 23 33 32 34 26 21 28 27 27 28 28 28 26 25 21 19 20 18 13 12 16 17
26 25 23 22 21 22 24 25 25 24 24 24 25 26 26 26 26 26 26 26 26 24 23 23 24 24 17 10 10 11 17 16 16 18 18 17 16 18 22 20 17 17 18 20 23 25 28 29 28 31 33 33 33 33 33 31 31 30 28 26 24 25 24 23 23 17 20 31 32 34 28 24 30 30 29 29 28 29 27 25 21 20 22 21 16 12 14 17
27 26 25 24 22 22 23 24 24 24 24 24 25 25 26 27 28 29 30 28 27 27 25 24 25 25 20 15 10 11 18 18 17 18 16 14 14 18 24 23 21 22 23 23 24 24 27 31 35 39 37 34 32 30 31 29 29 29 27 28 27 28 26 21 21 18 21 31 34 34 29 26 32 31 30 30 30 31 28 24 23 22 24 23 20 15 13 15
28 28 27 25 24 23 23 24 24 24 25 25 25 25 25 27 29 31 33 29 26 27 27 25 27 27 22 16 14 15 16 18 18 17 18 15 13 17 23 26 28 29 27 23 21 20 25 34 40 41 36 33 31 28 28 27 29 30 30 30 29 30 28 23 22 19 21 33 36 35 30 26 30 30 31 32 31 32 30 27 25 24 24 24 23 18 13 12
29 29 28 26 25 24 24 25 25 25 25 26 26 25 25 26 27 29 33 31 24 24 26 25 26 27 22 15 14 20 22 22 21 18 19 19 19 20 21 26 32 33 29 24 24 24 29 37 39 37 34 32 31 29 28 28 29 31 32 33 32 33 30 28 28 23 22 35 37 35 32 27 29 29 30 32 31 31 31 30 27 24 25 26 25 21 15 14
28 28 28 27 25 24 24 25 25 25 26 26 25 24 25 24 25 27 31 35 29 23 24 25 26 27 23 17 14 25 31 28 24 22 21 23 24 23 20 25 31 32 30 29 31 33 34 35 34 33 32 31 31 31 28 28 30 31 34 34 35 36 32 31 30 21 20 33 35 35 34 29 29 29 31 30 28 30 30 29 26 23 24 25 24 22 17 17
27 28 28 28 26 24 23 24 25 25 26 26 24 24 24 22 25 29 30 35 36 27 21 21 26 28 23 18 16 26 32 29 27 27 25 25 26 25 24 23 28 33 33 32 34 36 37 31 26 27 29 29 30 31 30 30 32 32 34 37 38 40 37 35 31 22 19 25 31 35 32 30 33 32 35 35 30 31 30 27 27 25 26 25 24 23 20 18
28 28 28 28 27 24 22 23 24 24 26 26 24 24 24 22 24 29 30 32 37 32 23 23 26 26 22 21 22 25 28 30 31 29 29 28 26 27 26 23 26 32 33 32 32 35 38 32 23 22 25 29 29 30 31 32 33 34 35 38 41 41 39 37 32 25 20 20 27 33 23 22 37 37 34 37 36 35 32 29 30 28 28 29 28 27 25 22
28 28 28 28 28 24 21 22 23 24 25 24 24 23 22 22 22 26 28 28 35 33 23 19 18 19 22 25 25 23 27 30 29 30 32 30 27 27 27 26 27 30 29 28 30 34 36 32 27 23 23 27 31 31 32 32 33 36 37 37 38 41 40 37 33 27 20 16 23 33 24 17 34 41 36 37 37 36 35 32 32 32 31 33 33 30 27 26
28 28 28 27 28 26 20 20 22 23 23 22 24 22 20 21 20 22 21 17 22 23 15 11 9 11 16 20 24 27 27 23 23 32 37 32 30 30 29 29 29 29 27 25 29 35 33 30 31 31 28 28 34 36 32 32 35 39 37 33 34 39 39 38 36 32 29 26 22 30 32 21 29 42 40 38 37 36 36 35 33 34 34 35 34 31 30 28
29 29 28 26 27 28 22 20 21 21 21 21 21 21 20 19 17 16 11 5 6 9 7 6 6 9 13 16 23 28 25 18 16 24 33 34 32 33 34 33 31 29 28 28 33 34 30 29 31 32 34 34 37 36 29 30 37 39 35 30 32 35 35 36 35 34 36 32 25 27 32 18 19 40 44 39 40 37 36 37 35 37 38 36 35 32 32 31
31 31 31 27 26 27 24 24 25 19 18 20 20 21 20 18 16 10 3 3 6 7 7 7 8 10 13 16 19 23 26 24 14 11 25 38 35 34 36 34 31 30 29 31 34 32 27 28 27 28 35 38 38 34 28 31 34 32 29 29 30 30 33 33 31 36 36 26 23 29 31 18 11 32 46 43 43 41 38 37 37 38 38 37 36 34 33 33
34 32 32 30 27 25 22 23 27 21 17 19 19 19 18 17 15 10 6 7 8 6 7 9 11 12 12 16 17 20 25 27 20 11 21 37 36 35 36 31 29 30 31 32 33 33 30 26 25 27 31 33 35 33 31 32 28 24 25 29 30 29 34 35 33 37 27 15 24 33 34 27 13 22 45 47 43 41 38 39 38 39 40 39 38 36 35 36
37 34 33 32 30 27 21 20 25 24 19 17 18 17 16 16 16 10 6 12 12 7 6 7 10 15 15 14 15 18 22 25 25 18 23 37 38 37 37 32 31 32 32 34 34 34 33 28 28 30 29 28 30 31 31 31 29 28 28 29 28 27 31 32 32 30 14 7 24 34 33 33 22 22 39 46 42 38 37 38 37 37 40 40 39 38 38 38
39 37 33 32 31 29 24 21 21 23 20 17 16 16 16 14 18 19 12 8 9 8 11 9 8 13 15 18 18 18 19 23 26 24 26 36 41 44 43 39 40 36 32 38 38 34 36 36 33 29 30 30 29 30 31 32 33 34 36 33 25 17 16 17 16 14 8 9 24 30 28 30 32 35 38 40 42 40 38 36 34 33 35 37 39 39 41 41
39 39 34 31 31 29 26 23 21 22 20 17 14 16 18 12 13 24 24 16 7 5 11 12 13 15 12 18 23 22 21 21 25 28 25 28 39 48 46 43 44 38 32 35 37 32 31 35 36 33 33 33 33 34 34 35 37 39 42 40 26 10 5 8 7 5 7 12 22 29 24 20 29 39 39 36 37 39 41 37 33 33 33 33 34 37 42 44
39 38 35 31 29 29 26 23 22 21 18 17 16 17 22 18 10 12 17 22 20 13 13 18 18 18 15 15 19 22 26 23 23 31 28 26 36 47 49 47 45 41 34 30 32 34 26 25 34 38 38 37 37 37 34 33 36 39 41 40 35 25 15 8 5 4 4 6 14 23 18 10 16 28 32 33 33 34 39 39 34 34 34 32 31 36 42 45
38 37 34 29 27 29 26 22 23 22 18 18 19 22 28 27 17 9 5 9 15 21 31 34 28 25 23 19 16 18 25 25 23 29 33 32 36 43 47 49 49 45 38 29 28 34 31 30 34 35 36 39 39 37 34 30 32 35 38 41 42 43 32 12 4 8 7 3 9 18 15 10 14 20 21 25 29 32 36 38 37 38 37 33 33 38 42 43
39 36 31 25 25 28 25 22 23 22 20 19 22 31 37 31 21 14 10 9 9 17 28 31 25 24 24 22 20 17 20 27 28 28 35 38 38 39 40 43 47 47 45 37 29 28 29 34 38 32 31 37 39 38 36 32 29 30 40 46 42 41 38 20 8 11 11 5 9 19 19 17 18 19 18 20 25 32 36 36 38 40 39 35 34 37 39 41
40 36 27 22 25 27 25 24 23 22 22 23 28 35 37 34 29 22 17 16 14 15 19 21 17 13 13 14 17 14 9 20 31 34 36 36 37 41 42 40 41 44 47 44 35 30 26 28 34 34 33 35 36 37 37 36 32 30 38 45 37 30 34 30 14 7 9 5 7 18 22 21 19 19 20 22 24 28 32 33 36 42 40 35 33 34 36 38
39 35 26 22 24 24 25 26 24 22 22 26 34 37 34 35 35 30 24 21 20 20 21 22 19 15 12 12 15 14 6 9 21 30 34 36 35 38 42 42 41 41 42 43 40 35 28 24 27 30 31 31 31 34 38 39 37 34 34 36 32 24 24 28 18 7 8 5 3 13 21 23 25 24 23 23 24 28 31 32 37 42 40 34 32 33 34 36
37 32 21 18 21 22 26 27 25 23 25 30 35 35 32 34 33 31 30 27 28 28 25 20 17 18 18 18 21 22 17 15 14 16 21 28 34 37 38 39 41 41 39 42 44 40 32 25 24 26 26 27 31 37 42 43 39 38 36 33 34 31 27 29 24 14 9 5 4 9 11 18 30 32 29 29 26 26 29 32 35 38 37 35 34 33 34 36
33 29 16 11 20 24 27 27 25 25 27 32 34 31 29 30 29 28 28 28 30 30 26 20 18 22 26 25 26 27 25 24 22 20 19 18 25 33 36 35 38 40 38 39 44 44 39 31 27 27 27 29 36 41 44 45 42 43 45 39 35 35 30 27 29 28 18 6 4 5 6 17 32 33 31 36 35 31 30 30 32 35 38 37 35 34 33 34
30 28 14 8 21 26 25 24 24 24 26 28 28 28 27 25 24 24 23 25 28 30 30 27 25 28 30 31 32 30 30 30 26 26 25 20 19 22 27 32 36 38 36 39 44 46 45 39 32 31 33 35 38 40 41 44 44 45 49 46 41 36 28 19 18 27 28 15 8 6 5 14 27 29 29 31 31 31 31 29 30 34 39 39 38 35 32 31
28 27 13 10 23 25 24 25 25 24 24 24 23 23 23 21 18 17 16 17 22 26 28 28 29 28 26 31 34 31 31 34 30 27 27 25 20 15 14 21 30 36 39 42 44 43 43 43 40 36 40 40 34 31 34 40 44 45 46 47 45 40 34 23 11 13 22 23 19 13 9 18 28 29 27 26 26 27 27 25 29 35 40 41 39 37 34 31
28 25 9 9 18 19 19 23 24 26 26 26 25 23 23 22 19 17 15 17 19 21 22 25 26 25 23 27 31 26 25 32 32 28 29 29 27 22 17 19 22 28 36 42 45 45 41 41 41 37 39 43 41 36 33 34 42 49 48 47 47 46 45 36 24 18 17 21 21 12 9 26 38 32 27 25 26 27 24 19 22 31 40 43 41 40 37 31
27 22 7 5 12 13 9 9 12 18 22 24 24 23 25 24 20 18 18 20 22 22 24 25 22 21 23 26 28 25 22 24 23 21 24 26 28 29 26 26 24 20 22 25 30 40 45 44 37 27 22 27 34 35 32 34 41 48 52 51 49 50 50 44 35 28 20 20 24 15 9 25 38 35 33 31 30 32 28 19 18 24 36 45 44 42 39 31
26 22 12 7 10 10 5 3 7 10 13 18 21 21 22 23 20 16 16 18 20 18 19 22 21 22 25 25 26 25 21 21 21 19 23 28 30 32 29 29 29 24 20 18 12 21 41 52 45 29 16 14 18 20 26 35 41 43 46 50 52 51 49 46 38 28 23 24 26 23 16 22 33 34 32 32 36 40 35 26 23 24 31 44 47 42 38 34
23 22 19 14 10 6 5 4 7 9 9 13 18 18 20 23 23 21 19 19 19 17 17 18 18 20 24 24 25 26 25 26 24 23 28 33 34 34 32 29 29 27 23 21 12 10 24 42 52 50 39 33 33 29 27 29 34 38 39 42 50 53 50 49 42 34 32 29 29 32 24 19 27 31 29 29 33 38 37 33 30 25 25 38 47 41 35 33
20 19 20 20 13 5 4 5 8 12 13 15 17 16 16 20 22 24 25 22 20 20 22 21 17 19 24 26 26 27 28 30 29 27 30 35 38 40 39 33 30 29 25 20 16 14 17 24 39 55 55 49 48 44 37 31 28 33 39 39 44 51 51 49 46 42 37 27 28 40 35 24 23 24 27 29 26 26 27 29 30 24 20 28 39 38 33 32
19 18 17 18 16 13 12 11 12 16 17 17 17 17 17 18 19 20 23 24 22 17 16 18 17 17 20 25 27 29 31 32 33 32 32 34 39 44 46 41 35 33 30 26 21 17 20 24 27 40 54 55 50 46 44 41 32 28 37 42 42 47 52 51 48 47 42 33 34 41 40 36 30 23 22 24 21 21 23 24 26 24 22 27 32 33 33 32
18 18 16 15 16 18 18 17 17 18 17 16 16 16 16 17 16 16 18 22 26 22 14 16 19 17 17 21 25 28 29 30 33 34 33 33 34 36 41 43 39 32 27 26 20 10 15 23 21 25 43 56 54 48 46 45 40 32 34 41 43 44 50 52 49 45 42 40 39 37 38 40 38 30 26 21 20 23 26 27 26 23 25 30 31 32 32 33
16 16 17 17 18 18 17 17 18 18 17 16 15 14 14 14 13 13 15 16 22 25 19 15 17 19 19 20 23 27 28 28 34 37 36 36 34 31 32 36 36 30 21 16 12 5 11 15 14 16 29 48 55 54 48 46 44 37 33 36 41 44 47 49 49 45 41 40 37 34 36 40 39 37 35 29 25 24 22 19 16 16 24 28 28 30 30 31
14 14 16 19 20 18 16 16 17 19 19 16 14 13 13 14 12 12 15 14 15 20 21 17 16 18 20 21 23 28 30 29 34 38 38 40 39 34 33 33 31 29 24 17 11 7 10 12 10 10 15 34 52 53 50 50 46 38 36 36 37 41 45 48 48 43 39 38 37 37 38 38 37 39 40 36 33 32 30 24 15 13 20 24 27 30 30 31
13 13 14 17 20 18 17 17 17 18 18 16 14 14 15 16 13 11 15 16 12 13 17 18 19 20 21 23 25 26 27 30 34 37 38 41 42 39 37 35 30 28 27 23 18 13 12 14 13 13 15 19 41 51 53 48 37 34 42 43 35 35 40 41 43 43 38 34 36 39 40 38 34 36 40 38 32 30 31 29 24 18 17 21 24 25 25 27
Wind_Direction
282 281 281 281 281 281 282 283 284 285 286 288 289 290 291 293 295 296 298 299 300 302 302 304 303 302 298 295 295 292 286 277 268 259 235 210 232 231 227 222 215 213 215 219 223 226 231 234 234 232 236 242 238 234 217 196 169 153 213 263 252 52 64 142 124 138 141 140 160 173 174 172 168 179 191 199 216 187 165 176 166 159 168 199 197 171 159 160
284 281 280 279 278 279 279 280 281 282 283 284 285 286 287 288 290 292 294 294 295 296 297 300 302 302 300 298 299 296 294 286 273 261 244 231 234 233 230 224 215 211 211 216 222 225 229 232 233 235 237 239 224 215 217 196 186 178 221 258 234 173 149 143 138 146 151 147 157 172 183 202 200 189 196 201 192 179 191 197 185 181 178 183 188 175 166 166
289 286 283 281 279 278 278 277 278 278 279 280 281 282 283 284 285 287 289 291 291 291 292 295 297 299 298 299 303 302 300 293 282 269 255 242 236 231 224 222 215 209 208 211 214 218 218 208 216 229 232 234 221 212 210 198 211 214 238 251 203 172 182 156 163 170 171 176 167 177 195 217 216 196 200 202 186 192 219 216 199 204 197 187 185 179 173 169
293 291 288 286 283 281 279 278 277 276 276 276 277 278 279 280 281 282 284 286 287 288 288 290 292 293 294 298 302 305 307 303 294 278 264 249 234 220 207 213 211 205 204 203 202 203 199 190 203 216 221 227 220 218 214 200 212 225 235 235 166 164 215 204 189 176 174 183 166 173 196 207 197 193 208 208 186 198 236 261 259 231 205 192 184 182 178 173
297 293 291 289 287 285 283 281 279 277 276 275 275 275 276 276 277 278 280 282 283 284 285 287 288 288 289 293 297 303 306 309 316 290 268 243 211 195 189 201 203 198 198 199 197 197 196 196 203 207 215 218 211 221 216 201 213 233 239 245 258 242 243 259 193 180 173 174 170 187 200 198 191 191 216 226 205 222 276 309 304 251 213 196 190 184 178 177
303 299 295 291 289 288 285 283 281 279 278 276 274 274 273 273 274 275 276 277 279 280 282 283 284 285 286 287 292 297 299 308 318 231 200 205 186 175 183 192 194 193 194 197 195 195 196 198 204 208 218 217 212 223 212 199 224 246 251 259 268 254 248 238 180 182 178 172 176 191 193 195 202 198 222 237 221 245 281 281 316 238 214 200 199 189 180 181
307 305 302 298 293 290 288 285 282 280 279 277 275 274 272 272 271 272 272 274 276 276 277 279 280 281 282 284 286 288 296 306 296 264 228 214 197 178 188 191 193 194 194 198 195 196 197 200 209 215 223 222 219 223 202 199 235 255 255 255 264 255 244 230 193 192 183 174 176 176 185 200 224 213 222 231 221 239 257 237 231 220 206 205 209 198 186 184
307 306 306 303 299 295 292 289 286 284 281 278 276 274 272 271 270 270 269 270 272 273 274 275 276 277 278 282 281 286 300 296 272 268 248 227 211 192 197 195 196 197 195 199 197 198 198 202 211 215 223 223 222 217 196 211 242 248 253 254 265 259 238 226 211 206 193 178 184 181 177 193 228 236 222 221 217 229 236 219 219 220 209 213 216 201 190 187
307 306 305 304 303 300 297 294 291 287 285 283 279 277 274 272 270 268 268 267 269 270 271 272 273 273 273 276 278 285 301 272 234 245 243 238 230 213 208 202 200 197 194 196 196 199 200 204 211 214 223 223 224 218 201 232 241 235 255 264 273 275 257 235 221 218 216 197 188 189 168 179 214 225 214 218 216 221 224 216 218 225 223 221 217 202 194 192
307 306 304 304 303 301 301 297 295 291 288 286 283 280 276 273 270 268 267 265 266 268 269 270 270 270 270 271 273 268 246 216 204 212 222 226 230 221 214 210 208 199 193 195 196 200 202 204 208 211 219 220 223 224 217 235 239 240 266 272 270 285 279 244 224 227 227 214 190 184 171 175 196 202 201 210 220 222 218 216 219 228 244 234 219 203 197 197
305 304 303 303 302 301 301 299 298 296 293 290 286 283 280 277 273 270 267 264 264 265 266 267 267 269 268 266 268 258 228 225 218 226 234 228 214 202 200 207 213 205 196 197 197 201 202 199 199 200 207 213 218 224 228 235 242 251 263 269 263 271 280 244 225 232 227 213 192 179 175 176 188 206 212 209 217 225 219 218 222 233 255 245 223 206 197 198
303 302 301 301 301 300 300 299 299 298 297 295 290 286 282 280 277 273 269 266 264 263 264 265 266 267 267 266 265 230 217 217 218 236 243 237 206 185 182 187 212 210 201 200 199 199 198 191 192 197 203 210 213 221 230 234 244 253 257 268 265 260 269 241 223 228 220 203 189 180 177 179 191 210 222 214 210 216 222 225 225 239 259 240 219 207 200 198
302 301 300 299 299 299 298 298 298 298 299 297 294 290 286 283 280 277 274 270 265 263 263 263 265 265 267 268 204 178 222 224 224 238 242 236 202 182 171 159 201 210 202 201 200 198 195 188 192 199 204 209 211 217 228 231 241 250 253 262 261 257 255 233 218 224 219 202 191 192 185 182 197 211 218 215 209 208 213 222 227 243 257 233 215 206 202 198
302 300 299 298 298 297 297 297 296 297 298 297 296 293 291 286 280 279 278 272 266 266 266 265 265 263 265 255 164 192 223 226 229 239 246 240 212 196 180 166 184 207 206 199 195 197 194 185 192 201 204 209 211 216 227 232 237 243 249 249 252 264 251 222 225 225 215 203 195 201 195 188 200 208 213 213 209 211 216 224 232 240 251 238 219 205 201 201
301 299 299 298 297 297 296 295 295 295 297 296 295 294 293 286 282 282 280 276 272 270 268 266 264 265 266 234 180 216 225 230 241 247 253 254 237 220 199 178 175 198 207 200 190 192 191 188 198 208 207 206 211 219 226 233 233 233 250 248 243 262 245 220 244 221 203 197 196 205 204 195 202 207 211 209 209 218 226 232 236 239 246 247 231 208 201 202
299 298 298 297 297 297 295 294 293 293 297 296 294 294 290 284 284 284 282 281 277 272 269 267 265 267 269 249 217 233 234 240 245 228 236 249 250 237 222 197 184 199 206 199 189 185 186 192 204 211 208 206 211 220 226 235 234 227 242 248 238 247 242 235 252 222 206 200 195 206 212 193 195 205 207 207 213 220 227 233 238 241 243 248 244 212 202 201
296 296 296 295 296 295 294 293 291 291 294 293 293 292 290 287 287 287 285 281 276 273 270 269 267 267 270 263 240 231 233 237 224 213 221 235 242 235 234 217 203 221 212 198 193 186 185 194 206 210 209 207 209 216 227 234 230 223 228 240 238 237 243 245 247 226 214 210 199 204 215 196 191 201 202 205 215 220 227 234 236 241 243 247 247 219 208 206
293 293 293 293 294 294 293 292 291 291 291 291 289 288 287 287 288 286 283 278 275 274 271 271 270 268 268 261 247 224 208 213 204 200 207 221 228 218 225 219 205 224 223 202 198 193 190 195 204 211 212 211 208 213 224 223 218 217 219 227 234 234 243 247 247 242 216 216 210 203 208 198 191 199 202 205 215 222 231 235 237 243 242 243 245 229 215 212
291 291 291 291 292 292 292 291 291 291 290 290 288 287 287 285 286 284 280 277 275 273 270 270 267 264 260 257 257 221 208 209 200 197 199 212 218 207 212 212 203 223 226 206 200 197 196 198 203 210 213 212 210 213 220 219 214 215 215 222 232 236 243 241 240 252 224 212 206 198 201 197 191 196 202 207 214 223 230 231 234 240 239 239 243 237 221 218
290 289 288 290 291 291 292 291 291 292 290 289 285 285 287 287 286 281 277 275 276 275 270 269 271 269 262 255 247 215 211 214 204 194 189 201 210 201 204 202 199 218 221 207 202 197 198 205 208 210 209 208 212 216 221 223 220 220 221 224 233 240 243 230 225 251 235 206 195 196 201 195 194 198 202 206 211 216 221 224 229 233 235 237 241 244 228 218
291 289 287 287 289 291 292 291 292 293 291 289 287 287 288 289 288 283 280 274 270 272 271 270 272 270 267 256 228 211 211 213 205 186 173 184 201 200 200 198 197 209 211 203 205 203 206 215 213 210 209 207 210 216 221 226 225 227 229 229 236 242 240 227 229 262 244 207 194 197 201 194 195 199 200 203 206 211 219 224 227 230 235 239 241 248 237 218
292 289 287 285 286 289 290 290 291 293 293 291 291 294 294 294 295 294 291 280 263 263 269 268 268 269 271 262 221 206 212 213 207 192 175 182 204 212 206 203 204 206 203 200 209 213 218 224 217 210 212 210 210 213 217 223 225 228 231 234 240 238 238 238 243 266 245 209 198 198 201 197 198 200 200 204 209 216 223 227 229 230 234 238 239 246 244 229
295 291 289 286 285 285 288 288 288 291 292 291 293 296 296 298 297 293 291 287 275 266 267 265 265 267 264 260 225 206 216 218 207 200 192 191 205 218 220 214 208 203 200 202 210 215 220 227 221 213 214 214 215 214 213 219 224 227 228 233 239 233 240 250 245 259 241 212 206 204 203 200 197 199 201 206 215 218 221 226 231 234 236 240 242 247 248 236
300 296 292 288 286 285 286 285 284 287 287 288 292 294 294 296 295 289 289 290 285 274 272 269 264 261 258 259 237 215 219 224 216 207 204 203 203 214 225 219 207 202 201 204 212 218 222 226 222 216 217 216 217 215 212 217 224 227 226 228 234 232 238 247 245 259 258 231 218 205 196 192 190 192 198 203 210 213 215 220 224 230 236 241 245 247 248 243
303 301 296 293 289 286 288 286 283 282 281 283 285 287 292 293 293 292 296 298 290 281 280 277 264 258 252 242 235 226 221 226 225 213 210 210 203 209 219 216 211 210 207 206 215 224 227 226 220 217 220 217 216 216 213 217 226 231 228 225 229 231 237 243 246 260 267 252 225 201 187 188 192 195 199 200 203 207 212 215 219 226 231 235 240 242 244 244
306 304 300 298 293 288 288 289 284 279 277 279 279 282 287 288 290 293 299 303 294 289 291 283 264 251 241 231 231 224 216 228 233 216 211 213 206 208 215 214 215 219 215 209 216 228 232 228 219 216 222 218 215 217 215 216 228 234 228 223 227 232 240 244 247 255 258 251 223 203 200 199 194 198 201 199 201 204 208 214 220 226 228 230 236 239 240 240
309 308 306 304 300 294 290 289 284 278 276 277 276 276 277 279 284 290 298 307 298 294 291 273 250 237 230 223 222 216 215 231 229 215 215 215 208 206 213 217 218 220 218 211 218 228 231 227 220 217 223 223 217 217 216 214 225 231 225 221 228 233 241 246 248 254 255 255 247 216 211 205 193 198 201 200 202 202 206 215 222 225 227 228 232 237 240 241
310 310 308 310 308 303 300 292 283 279 277 274 270 269 269 270 275 284 294 303 297 299 277 237 210 217 214 206 213 216 222 231 220 219 221 215 208 206 211 217 220 223 216 209 219 228 226 222 221 215 219 226 223 221 219 213 220 228 224 223 230 233 240 248 252 256 256 255 257 235 220 216 201 200 199 200 204 204 209 217 222 223 224 226 229 234 238 240
308 309 308 311 310 309 311 299 288 284 277 270 265 263 261 262 263 262 251 235 259 263 253 232 209 217 214 206 212 216 223 227 222 227 214 208 208 209 213 216 217 225 222 216 225 232 229 226 225 219 220 225 226 227 226 218 220 226 226 229 234 235 241 248 254 255 254 244 242 240 226 222 227 205 197 196 203 209 217 224 225 224 224 227 231 234 234 235
303 305 307 309 308 309 314 303 294 292 281 269 265 260 255 255 246 223 207 236 251 251 239 229 224 231 223 214 214 212 220 225 222 211 199 205 208 207 214 221 219 226 228 225 230 235 234 231 230 228 227 226 225 228 229 225 226 229 227 231 237 240 241 247 254 253 252 236 236 244 229 218 237 216 201 200 209 217 222 224 225 224 226 229 233 233 231 231
299 301 305 308 307 307 309 303 295 293 287 271 263 257 250 245 227 206 221 243 250 251 216 210 227 237 240 235 229 220 217 218 216 205 193 201 203 201 208 217 217 222 228 228 232 237 235 230 226 227 230 230 228 230 230 229 230 228 224 226 233 240 242 249 254 247 243 231 240 248 236 219 220 223 214 212 219 227 228 225 224 225 226 229 232 232 229 230
296 296 301 306 307 307 305 300 292 288 285 271 260 249 235 227 221 218 215 226 265 254 208 199 212 227 247 250 244 239 229 218 211 203 195 198 200 201 205 208 209 212 220 223 226 232 234 231 226 223 225 227 228 229 228 227 228 226 222 220 221 228 237 245 250 240 229 238 246 250 242 223 219 228 229 223 224 230 230 230 234 235 231 229 231 231 229 229
293 294 298 303 307 307 300 295 287 279 277 266 251 236 221 213 227 229 222 215 216 173 185 202 198 197 230 243 238 239 239 230 212 201 202 206 206 206 209 212 211 211 215 219 221 226 234 237 231 227 225 222 222 225 222 222 224 221 218 215 211 201 206 226 234 246 242 239 245 246 240 223 219 226 230 231 236 238 234 235 243 245 240 235 235 233 229 228
293 293 296 301 305 301 292 286 278 271 270 259 243 225 215 216 229 236 233 231 226 220 242 257 240 219 224 233 234 232 232 234 217 204 206 213 212 209 210 212 214 216 218 219 220 221 227 235 229 226 224 217 218 223 222 223 222 220 219 217 216 215 211 213 216 216 227 231 237 235 228 208 215 226 232 237 244 246 241 241 245 245 241 238 239 234 229 228
296 294 297 302 300 290 284 279 272 265 259 250 236 221 218 221 222 218 227 236 235 241 250 259 266 260 246 231 226 230 231 233 226 212 211 215 216 214 213 213 212 214 217 218 221 221 224 233 229 222 221 218 219 221 223 225 224 220 219 218 220 222 220 223 247 235 235 240 230 227 223 223 235 244 247 243 240 235 236 240 239 237 234 233 235 233 229 229
298 296 298 301 289 279 277 272 268 263 254 244 232 226 226 226 222 218 211 203 227 252 253 256 266 269 260 242 229 236 239 235 233 224 218 218 221 221 220 219 216 215 215 215 217 217 220 233 234 226 223 222 219 219 221 223 222 217 213 215 220 224 225 230 253 247 244 250 238 235 238 241 244 251 249 243 238 230 229 234 234 232 230 229 231 231 230 230
301 297 297 295 281 274 273 268 263 260 252 241 233 232 235 233 228 224 219 214 230 265 280 279 272 262 267 257 232 225 237 237 233 228 224 224 226 227 225 224 223 221 218 218 220 221 223 236 240 233 230 225 218 219 224 226 226 218 211 214 219 223 226 229 234 233 229 236 241 237 240 243 240 244 244 239 239 235 231 232 232 229 226 226 227 226 228 230
307 305 303 295 281 270 266 262 256 253 246 238 237 238 239 238 236 234 230 228 237 258 282 288 281 274 276 274 250 233 242 259 235 226 229 230 229 232 229 224 224 225 224 223 223 225 229 239 244 238 236 229 218 221 227 227 228 226 220 219 217 211 213 217 219 215 214 223 250 234 237 242 237 235 237 234 232 236 235 231 230 227 222 221 223 223 225 227
314 314 313 296 277 260 251 249 246 244 238 234 238 242 243 244 245 242 238 237 241 255 275 283 279 279 274 272 274 265 269 285 265 242 246 240 233 236 234 226 224 223 225 225 223 225 227 234 241 237 234 230 222 222 224 223 223 224 227 226 220 218 216 212 214 215 206 204 227 228 230 238 239 238 237 236 234 234 234 230 227 225 221 221 223 222 221 224
318 319 323 289 266 251 242 241 238 235 234 236 241 245 250 252 251 248 243 241 241 248 262 269 267 273 275 275 277 274 278 286 278 272 276 254 235 238 236 230 226 222 222 226 227 227 224 229 240 235 230 230 226 223 221 219 218 215 218 219 215 218 221 218 221 221 213 200 184 207 231 235 237 240 239 239 241 243 245 244 238 227 221 223 226 222 219 222
319 321 330 272 255 248 236 231 225 221 228 239 245 250 255 259 263 265 258 248 243 243 250 263 271 273 278 280 277 276 281 284 281 276 274 256 236 239 233 228 229 227 221 219 223 225 222 226 235 233 231 233 230 228 225 222 219 213 214 217 214 213 210 208 223 222 218 218 203 196 246 245 236 236 238 238 240 246 250 254 253 238 226 225 227 223 220 223
319 322 328 247 248 250 238 228 218 215 223 232 239 247 255 261 265 270 270 258 248 245 248 260 269 272 280 280 276 278 279 277 277 274 271 259 238 228 228 230 229 226 223 221 222 227 227 226 230 231 233 234 233 232 229 227 224 218 216 219 218 217 214 209 211 216 217 224 226 222 244 252 241 233 233 235 237 245 248 251 259 250 236 230 227 223 222 224
319 324 333 232 254 264 249 238 227 224 229 230 231 236 241 247 249 251 264 268 260 258 259 259 263 270 276 270 267 272 273 271 269 263 266 267 247 234 253 259 232 217 223 227 225 224 224 223 224 228 234 236 236 235 234 231 225 219 218 218 217 219 222 223 224 223 225 228 225 219 240 248 245 237 230 232 238 245 248 254 265 253 239 234 228 222 220 222
320 324 328 238 280 292 272 262 254 242 240 240 242 243 238 237 244 255 266 265 260 263 264 260 261 266 270 266 260 264 270 270 268 256 254 260 247 238 251 254 237 220 219 222 222 219 218 217 218 219 226 236 239 239 238 234 224 217 217 217 217 219 222 227 228 226 234 237 225 216 231 242 244 243 238 233 237 246 250 258 271 258 240 233 227 220 218 221
322 322 316 294 300 301 278 304 312 279 259 255 256 257 250 240 237 247 259 257 253 262 268 266 267 269 273 273 263 262 266 262 268 268 254 251 245 240 244 243 240 240 225 210 210 218 218 217 214 210 207 213 225 231 230 227 223 220 217 215 216 218 218 222 224 221 228 235 229 225 232 237 239 244 244 238 238 245 248 252 264 271 255 236 225 219 218 221
322 322 323 321 316 296 246 244 296 299 297 288 275 267 263 255 243 237 245 256 258 263 268 268 275 276 276 278 272 269 265 255 262 279 273 263 255 249 248 247 249 252 235 216 208 217 226 223 217 215 217 218 221 226 229 227 222 220 219 215 214 216 218 220 220 221 224 228 232 235 238 241 237 236 240 245 246 246 248 252 258 269 267 241 226 219 219 223
318 319 325 327 324 311 259 254 290 300 312 318 305 291 282 276 264 247 243 254 263 266 266 265 278 288 280 279 282 279 274 263 259 271 278 271 263 257 254 255 261 261 248 236 234 240 255 248 227 221 221 224 226 228 231 234 228 222 220 217 214 214 217 217 218 223 225 222 231 237 238 242 242 235 238 248 254 251 250 254 253 253 253 234 222 221 225 226
312 313 320 319 312 310 307 302 306 305 308 315 311 304 298 293 287 269 254 251 252 262 278 276 280 294 286 280 285 286 285 280 270 269 274 272 267 264 258 256 262 262 256 255 255 256 264 262 247 230 223 225 228 227 229 234 234 226 221 217 215 214 215 216 219 225 227 226 233 237 237 240 242 243 244 244 250 256 254 251 250 248 238 223 220 225 228 229
310 309 311 307 299 303 308 310 315 312 307 310 310 306 303 297 293 288 277 264 253 253 274 281 276 286 288 280 285 292 294 293 285 277 275 275 276 276 270 264 260 256 258 260 254 270 277 257 255 248 227 221 225 227 228 232 232 227 222 218 216 215 216 218 221 225 229 233 238 240 240 242 243 244 246 241 241 252 255 255 259 252 228 218 221 226 229 234
310 307 308 306 299 300 304 307 312 309 303 307 312 308 303 296 289 290 290 281 266 259 263 278 280 280 283 281 282 288 292 296 293 284 280 281 280 281 282 278 267 252 252 263 250 271 303 265 254 267 237 220 220 224 225 230 230 226 223 221 219 216 216 218 219 222 226 232 238 240 241 244 244 244 248 248 244 244 250 262 265 235 211 211 218 220 222 231
307 305 304 303 299 301 306 306 306 306 305 313 317 307 297 290 289 298 294 282 274 267 265 278 285 277 280 282 278 280 284 290 291 285 282 281 279 278 279 281 281 272 268 284 281 267 308 293 260 289 268 226 217 218 221 226 229 228 224 220 216 214 214 214 215 217 222 227 233 237 239 242 241 241 246 249 249 250 254 261 258 219 204 209 216 219 220 229
301 298 297 296 296 300 305 304 302 305 308 313 312 305 300 294 289 299 295 279 263 256 257 266 273 272 277 278 275 282 287 286 285 284 282 277 273 275 276 275 284 288 285 299 301 278 296 309 294 317 323 250 219 214 217 221 224 231 229 222 217 215 214 214 213 215 220 226 230 233 237 240 238 237 241 244 248 253 255 256 255 244 223 213 214 217 222 231
Height
3165 3164 3164 3163 3163 3162 3162 3161 3161 3161 3160 3160 3160 3159 3159 3158 3157 3157 3156 3155 3155 3154 3153 3153 3152 3151 3151 3150 3150 3150 3150 3150 3150 3150 3151 3152 3152 3152 3153 3155 3157 3159 3162 3164 3166 3169 3171 3173 3174 3175 3175 3175 3177 3177 3177 3177 3177 3175 3175 3175 3175 3175 3176 3176 3176 3177 3177 3178 3179 3179 3177 3176 3177 3179 3179 3180 3180 3181 3181 3181 3182 3182 3183 3184 3185 3185 3184 3185
3163 3162 3161 3160 3160 3160 3159 3159 3159 3158 3158 3158 3158 3157 3157 3156 3156 3155 3155 3154 3153 3152 3152 3151 3151 3150 3149 3148 3148 3149 3149 3148 3148 3148 3148 3149 3150 3150 3151 3152 3154 3156 3159 3162 3165 3168 3170 3172 3172 3173 3174 3174 3176 3176 3176 3176 3175 3174 3174 3174 3174 3174 3174 3175 3176 3177 3177 3178 3179 3178 3177 3176 3176 3177 3178 3179 3180 3180 3180 3180 3181 3181 3182 3183 3184 3185 3185 3185
3161 3160 3159 3158 3158 3157 3157 3156 3156 3156 3156 3155 3155 3155 3155 3154 3154 3154 3153 3152 3151 3150 3150 3150 3149 3149 3148 3147 3147 3147 3147 3146 3146 3146 3146 3146 3147 3148 3149 3150 3152 3154 3157 3160 3163 3166 3168 3170 3170 3171 3172 3173 3175 3175 3175 3175 3174 3173 3174 3173 3171 3172 3174 3175 3175 3176 3177 3177 3178 3178 3177 3176 3176 3175 3176 3178 3179 3179 3178 3178 3180 3181 3181 3182 3183 3184 3185 3186
3158 3157 3157 3156 3155 3155 3154 3154 3153 3153 3153 3153 3153 3153 3152 3152 3152 3152 3151 3150 3150 3149 3148 3148 3148 3147 3146 3146 3146 3145 3145 3145 3145 3145 3144 3145 3145 3146 3146 3148 3150 3153 3156 3158 3160 3163 3165 3167 3167 3169 3170 3171 3173 3174 3174 3174 3173 3173 3172 3170 3170 3172 3173 3174 3175 3175 3176 3176 3177 3178 3177 3176 3176 3174 3175 3177 3177 3177 3178 3178 3179 3180 3181 3181 3182 3184 3185 3186
3157 3155 3155 3154 3153 3152 3152 3151 3151 3150 3150 3150 3150 3150 3150 3150 3150 3149 3149 3148 3148 3147 3147 3146 3146 3145 3145 3144 3144 3144 3144 3143 3144 3144 3144 3144 3144 3144 3145 3147 3149 3151 3154 3155 3157 3159 3161 3163 3165 3166 3167 3169 3171 3171 3171 3173 3173 3171 3169 3168 3170 3172 3173 3174 3174 3174 3175 3175 3176 3177 3177 3176 3176 3174 3174 3174 3174 3174 3176 3178 3179 3180 3181 3182 3182 3183 3184 3186
3155 3154 3153 3152 3151 3150 3149 3149 3148 3148 3147 3147 3147 3147 3147 3147 3147 3147 3147 3146 3145 3145 3144 3145 3144 3144 3143 3143 3143 3143 3143 3143 3143 3143 3143 3143 3143 3143 3144 3146 3148 3150 3151 3153 3155 3157 3159 3161 3162 3163 3165 3167 3169 3169 3170 3172 3172 3170 3168 3168 3169 3171 3173 3173 3174 3173 3174 3174 3174 3175 3176 3177 3176 3174 3174 3173 3173 3174 3176 3178 3180 3181 3181 3182 3183 3184 3184 3185
3153 3152 3151 3150 3149 3148 3148 3147 3146 3145 3145 3145 3144 3144 3144 3144 3144 3144 3144 3144 3143 3143 3142 3142 3142 3142 3141 3141 3141 3141 3141 3141 3141 3142 3143 3144 3144 3144 3144 3145 3146 3148 3149 3151 3153 3154 3156 3158 3159 3162 3164 3165 3167 3167 3168 3170 3170 3169 3166 3165 3167 3169 3171 3173 3173 3173 3173 3173 3173 3174 3175 3176 3176 3174 3174 3174 3174 3175 3176 3178 3180 3181 3182 3182 3183 3184 3185 3185
3151 3150 3149 3149 3147 3147 3146 3145 3144 3143 3143 3142 3142 3141 3141 3141 3141 3141 3141 3141 3141 3140 3140 3140 3140 3140 3139 3139 3139 3140 3140 3140 3139 3140 3141 3142 3143 3144 3144 3144 3145 3146 3148 3149 3151 3153 3155 3156 3158 3161 3161 3163 3165 3166 3167 3168 3168 3166 3163 3165 3168 3169 3171 3172 3173 3172 3173 3172 3172 3173 3173 3174 3176 3175 3175 3174 3174 3175 3177 3178 3180 3181 3182 3182 3183 3184 3185 3186
3149 3148 3148 3147 3146 3145 3144 3143 3142 3141 3140 3140 3139 3139 3138 3138 3138 3138 3138 3138 3138 3138 3137 3138 3138 3137 3137 3137 3137 3138 3138 3138 3138 3138 3138 3140 3141 3142 3143 3143 3144 3144 3146 3148 3150 3151 3152 3153 3156 3159 3160 3162 3165 3164 3166 3166 3163 3163 3165 3167 3168 3169 3170 3172 3172 3171 3171 3171 3171 3172 3172 3173 3174 3175 3175 3174 3174 3175 3177 3178 3180 3181 3181 3181 3182 3184 3185 3186
3147 3146 3145 3145 3144 3143 3142 3141 3140 3139 3139 3138 3137 3137 3136 3135 3135 3135 3135 3135 3136 3135 3135 3135 3135 3135 3135 3135 3134 3136 3137 3137 3137 3136 3137 3137 3138 3140 3140 3141 3142 3143 3144 3146 3147 3148 3150 3153 3156 3159 3160 3161 3162 3162 3163 3162 3161 3162 3165 3166 3167 3167 3167 3169 3170 3169 3170 3170 3169 3170 3171 3171 3171 3173 3174 3175 3175 3175 3177 3178 3179 3180 3181 3181 3182 3183 3184 3185
3146 3145 3144 3143 3142 3141 3140 3139 3139 3138 3137 3136 3135 3134 3134 3133 3132 3132 3132 3132 3132 3132 3132 3132 3132 3132 3132 3132 3132 3133 3134 3135 3135 3135 3135 3136 3136 3137 3138 3139 3140 3141 3142 3143 3145 3147 3150 3153 3156 3158 3158 3158 3159 3160 3161 3160 3161 3162 3163 3163 3164 3165 3164 3166 3167 3168 3169 3170 3169 3169 3170 3170 3169 3170 3172 3174 3175 3176 3176 3177 3178 3179 3180 3181 3181 3182 3183 3184
3144 3143 3142 3141 3140 3139 3138 3137 3137 3136 3135 3134 3133 3132 3131 3130 3129 3129 3129 3130 3129 3129 3129 3129 3129 3129 3129 3129 3130 3132 3132 3132 3133 3133 3133 3134 3134 3135 3136 3137 3139 3140 3141 3142 3144 3146 3149 3152 3154 3155 3155 3156 3158 3159 3159 3160 3160 3161 3162 3162 3162 3163 3163 3163 3164 3166 3168 3169 3169 3169 3170 3170 3168 3167 3170 3173 3175 3175 3176 3177 3178 3178 3179 3180 3180 3181 3182 3183
3142 3141 3140 3139 3138 3137 3136 3135 3134 3134 3133 3132 3131 3130 3129 3128 3127 3126 3126 3127 3126 3125 3126 3127 3126 3126 3126 3126 3128 3130 3130 3130 3131 3129 3130 3132 3133 3133 3133 3135 3138 3139 3140 3142 3144 3146 3148 3150 3152 3153 3155 3155 3156 3157 3157 3158 3159 3159 3161 3161 3160 3160 3159 3160 3163 3164 3165 3166 3167 3167 3167 3168 3167 3166 3168 3170 3173 3174 3175 3175 3176 3178 3178 3179 3180 3181 3181 3182
3139 3138 3137 3136 3135 3135 3133 3132 3132 3131 3131 3130 3129 3128 3127 3126 3124 3123 3124 3124 3123 3123 3123 3124 3123 3123 3123 3124 3126 3127 3127 3127 3127 3126 3127 3129 3131 3132 3132 3133 3136 3138 3139 3140 3142 3145 3147 3149 3151 3152 3153 3153 3154 3155 3155 3155 3157 3157 3158 3158 3157 3157 3155 3157 3161 3161 3161 3163 3164 3163 3164 3166 3165 3165 3167 3168 3170 3172 3173 3174 3175 3176 3178 3178 3179 3180 3180 3181
3136 3135 3135 3134 3133 3132 3131 3130 3129 3129 3129 3128 3127 3126 3125 3123 3122 3121 3121 3121 3121 3121 3121 3120 3120 3120 3120 3123 3125 3124 3123 3123 3125 3126 3127 3127 3128 3130 3131 3132 3134 3137 3139 3139 3141 3143 3146 3148 3149 3149 3150 3152 3153 3154 3153 3153 3154 3155 3155 3154 3155 3155 3153 3154 3158 3159 3159 3161 3162 3161 3162 3163 3163 3164 3165 3166 3168 3170 3171 3172 3174 3175 3177 3177 3178 3178 3179 3180
3134 3133 3132 3131 3130 3129 3128 3127 3126 3126 3126 3125 3124 3124 3122 3120 3119 3120 3119 3119 3119 3118 3118 3118 3118 3117 3118 3120 3122 3121 3121 3123 3124 3126 3125 3124 3126 3128 3130 3131 3132 3135 3137 3138 3139 3141 3143 3145 3145 3146 3147 3149 3150 3151 3152 3152 3152 3152 3153 3152 3152 3153 3152 3153 3155 3157 3158 3159 3160 3159 3160 3161 3161 3162 3163 3165 3167 3168 3170 3171 3172 3174 3175 3176 3177 3177 3178 3179
3131 3130 3130 3129 3128 3127 3125 3124 3123 3123 3123 3122 3121 3121 3119 3117 3117 3117 3117 3116 3115 3115 3115 3115 3115 3115 3116 3117 3119 3119 3120 3121 3122 3123 3123 3123 3124 3127 3128 3128 3130 3133 3135 3137 3138 3139 3140 3141 3142 3143 3144 3145 3147 3149 3150 3148 3147 3149 3150 3150 3150 3150 3151 3151 3152 3155 3156 3156 3157 3158 3158 3159 3158 3159 3161 3162 3164 3166 3168 3169 3171 3172 3174 3175 3176 3177 3177 3177
3128 3127 3127 3126 3125 3124 3123 3122 3120 3120 3121 3119 3118 3117 3116 3115 3114 3114 3113 3112 3112 3112 3112 3112 3112 3113 3113 3114 3115 3117 3118 3117 3118 3119 3121 3122 3123 3125 3126 3127 3129 3132 3134 3134 3135 3137 3138 3138 3140 3141 3141 3141 3143 3144 3144 3143 3144 3147 3148 3149 3149 3148 3149 3149 3150 3153 3154 3154 3155 3156 3157 3158 3157 3157 3158 3160 3162 3164 3165 3167 3169 3170 3172 3173 3175 3176 3176 3176
3125 3124 3124 3124 3123 3122 3120 3119 3118 3117 3117 3117 3115 3113 3113 3113 3112 3110 3109 3109 3109 3109 3109 3109 3109 3110 3111 3112 3113 3114 3114 3114 3114 3116 3118 3120 3122 3123 3125 3126 3128 3130 3131 3131 3132 3134 3135 3136 3137 3135 3134 3136 3138 3140 3140 3142 3145 3147 3148 3149 3148 3147 3147 3148 3148 3151 3153 3152 3152 3153 3155 3156 3156 3155 3156 3158 3160 3161 3163 3165 3167 3168 3169 3171 3173 3174 3175 3175
3121 3121 3121 3121 3120 3120 3118 3116 3115 3115 3114 3113 3112 3111 3110 3110 3108 3106 3105 3105 3106 3105 3105 3105 3105 3106 3108 3111 3113 3112 3112 3112 3113 3113 3115 3118 3120 3121 3123 3124 3125 3127 3127 3128 3129 3131 3133 3133 3130 3128 3129 3134 3137 3139 3141 3144 3146 3147 3148 3148 3147 3146 3146 3146 3147 3150 3152 3151 3150 3151 3153 3153 3153 3153 3154 3156 3158 3160 3162 3163 3164 3166 3167 3168 3171 3172 3174 3174
3118 3117 3117 3117 3117 3117 3116 3114 3113 3112 3111 3110 3109 3109 3109 3107 3104 3101 3099 3101 3103 3102 3101 3102 3102 3101 3103 3108 3111 3110 3110 3110 3110 3111 3111 3115 3118 3118 3119 3121 3122 3122 3123 3126 3128 3130 3130 3126 3123 3126 3130 3134 3136 3139 3141 3143 3144 3145 3145 3146 3145 3144 3143 3144 3145 3148 3150 3149 3149 3150 3151 3151 3151 3152 3152 3154 3156 3157 3159 3160 3161 3163 3164 3166 3168 3171 3172 3173
3115 3114 3113 3114 3114 3114 3113 3111 3110 3109 3108 3107 3106 3107 3106 3104 3102 3099 3095 3094 3098 3100 3098 3099 3098 3097 3100 3104 3107 3108 3106 3105 3108 3109 3108 3110 3114 3115 3116 3117 3117 3118 3121 3124 3125 3126 3124 3120 3121 3127 3131 3134 3135 3137 3139 3141 3142 3143 3143 3144 3143 3141 3141 3141 3142 3147 3149 3147 3147 3148 3149 3148 3148 3150 3150 3151 3152 3154 3155 3157 3159 3160 3162 3164 3166 3168 3170 3171
3112 3111 3110 3110 3111 3111 3110 3109 3108 3107 3105 3105 3105 3105 3103 3102 3100 3098 3094 3089 3090 3094 3095 3096 3095 3094 3096 3099 3102 3102 3099 3101 3105 3106 3106 3106 3109 3112 3113 3114 3115 3117 3119 3119 3119 3120 3118 3116 3121 3127 3129 3132 3133 3135 3137 3138 3140 3140 3140 3141 3139 3138 3140 3140 3140 3145 3147 3146 3146 3145 3146 3146 3147 3149 3149 3149 3149 3151 3153 3155 3157 3158 3159 3161 3163 3165 3167 3168
3109 3108 3107 3107 3107 3108 3108 3106 3105 3104 3102 3102 3103 3102 3101 3100 3097 3094 3092 3088 3084 3086 3091 3092 3089 3089 3093 3095 3097 3095 3095 3099 3100 3102 3103 3103 3105 3109 3110 3112 3114 3114 3114 3115 3117 3116 3115 3116 3122 3126 3127 3129 3130 3132 3134 3135 3135 3136 3137 3137 3136 3135 3138 3138 3139 3143 3145 3146 3146 3144 3145 3146 3146 3147 3148 3148 3149 3149 3151 3153 3154 3155 3157 3159 3161 3162 3164 3165
3106 3105 3103 3103 3103 3104 3105 3103 3102 3102 3100 3099 3101 3100 3098 3098 3096 3091 3090 3087 3080 3080 3086 3086 3084 3085 3088 3090 3090 3091 3094 3095 3095 3098 3100 3100 3103 3106 3107 3110 3111 3110 3111 3114 3116 3115 3114 3117 3121 3123 3124 3126 3127 3128 3130 3131 3132 3133 3133 3134 3134 3134 3135 3137 3139 3142 3143 3144 3144 3143 3144 3145 3144 3144 3144 3146 3148 3148 3148 3150 3151 3152 3154 3156 3158 3159 3161 3162
3103 3102 3100 3100 3099 3101 3103 3100 3099 3098 3097 3097 3098 3097 3097 3096 3094 3092 3090 3087 3078 3076 3080 3080 3079 3080 3081 3083 3085 3088 3090 3088 3091 3096 3097 3098 3101 3103 3105 3106 3106 3107 3110 3113 3115 3113 3111 3115 3119 3120 3121 3123 3123 3124 3125 3129 3130 3129 3128 3131 3133 3133 3134 3135 3138 3141 3141 3141 3142 3141 3140 3141 3141 3142 3142 3143 3144 3145 3146 3147 3148 3149 3151 3153 3154 3156 3157 3159
3100 3099 3097 3097 3095 3096 3099 3098 3095 3094 3094 3095 3095 3095 3095 3093 3093 3092 3092 3089 3079 3074 3076 3076 3076 3076 3077 3080 3081 3083 3084 3083 3088 3092 3092 3094 3097 3099 3102 3103 3103 3105 3108 3113 3112 3106 3107 3113 3115 3116 3118 3119 3119 3119 3122 3126 3126 3123 3125 3131 3133 3132 3132 3132 3136 3138 3139 3139 3140 3140 3138 3136 3136 3137 3139 3140 3140 3142 3144 3144 3145 3146 3147 3149 3150 3152 3153 3155
3097 3095 3094 3095 3093 3091 3094 3094 3091 3091 3092 3092 3091 3092 3091 3091 3092 3092 3094 3092 3079 3073 3074 3074 3075 3074 3075 3077 3076 3078 3080 3081 3085 3085 3087 3091 3094 3095 3097 3098 3101 3102 3106 3109 3104 3101 3105 3109 3110 3112 3114 3114 3114 3117 3120 3123 3122 3120 3125 3130 3131 3132 3131 3131 3134 3135 3136 3137 3136 3136 3138 3135 3132 3133 3136 3138 3138 3139 3140 3140 3141 3142 3143 3144 3145 3147 3149 3151
3094 3092 3090 3092 3091 3089 3090 3088 3086 3088 3089 3088 3088 3088 3088 3090 3091 3091 3094 3089 3076 3071 3073 3073 3073 3073 3073 3074 3075 3077 3078 3080 3083 3083 3085 3088 3090 3092 3093 3095 3100 3101 3103 3104 3101 3101 3105 3106 3107 3110 3110 3109 3111 3115 3118 3120 3120 3121 3126 3128 3129 3130 3130 3130 3131 3131 3133 3132 3129 3131 3135 3133 3131 3131 3133 3134 3134 3134 3135 3136 3137 3137 3139 3140 3142 3143 3145 3147
3090 3089 3088 3087 3088 3088 3088 3085 3082 3084 3086 3085 3085 3085 3086 3087 3088 3091 3091 3082 3071 3070 3072 3072 3073 3072 3072 3073 3074 3075 3076 3078 3081 3082 3082 3084 3087 3090 3091 3095 3099 3100 3101 3102 3100 3100 3102 3105 3107 3108 3107 3108 3111 3114 3116 3118 3119 3122 3124 3126 3128 3128 3128 3128 3128 3129 3129 3125 3123 3125 3129 3130 3128 3126 3127 3127 3127 3128 3130 3132 3133 3134 3136 3137 3138 3140 3141 3143
3085 3086 3085 3084 3084 3085 3086 3083 3079 3079 3082 3081 3082 3083 3084 3085 3086 3087 3081 3072 3069 3070 3070 3072 3072 3070 3070 3072 3072 3073 3074 3076 3078 3079 3080 3082 3084 3086 3088 3092 3095 3097 3098 3098 3097 3098 3100 3102 3103 3103 3105 3108 3110 3111 3113 3116 3118 3120 3121 3123 3125 3125 3125 3125 3123 3125 3123 3118 3118 3121 3124 3125 3121 3120 3122 3122 3122 3124 3124 3126 3129 3130 3131 3132 3133 3135 3137 3139
3081 3081 3082 3081 3079 3080 3081 3080 3077 3076 3076 3077 3079 3080 3081 3083 3080 3074 3069 3069 3070 3068 3067 3070 3070 3069 3070 3070 3070 3071 3072 3073 3075 3076 3077 3077 3078 3079 3080 3081 3085 3089 3090 3090 3093 3095 3096 3096 3098 3101 3103 3105 3107 3108 3109 3111 3113 3115 3117 3120 3121 3121 3123 3121 3118 3117 3115 3113 3115 3117 3120 3117 3112 3114 3118 3119 3121 3121 3121 3122 3125 3126 3127 3128 3129 3131 3132 3135
3076 3075 3078 3079 3076 3075 3076 3075 3073 3071 3072 3074 3076 3076 3079 3078 3070 3062 3064 3069 3068 3065 3065 3066 3064 3065 3067 3067 3068 3069 3070 3071 3072 3073 3074 3075 3075 3074 3076 3077 3079 3081 3082 3085 3090 3092 3093 3093 3095 3098 3098 3099 3101 3102 3103 3104 3106 3108 3110 3112 3114 3115 3118 3116 3113 3112 3110 3110 3112 3115 3115 3110 3107 3110 3114 3116 3118 3119 3120 3121 3122 3123 3124 3125 3126 3127 3129 3132
3071 3071 3073 3075 3073 3069 3068 3069 3068 3067 3069 3070 3071 3073 3074 3069 3062 3060 3063 3066 3066 3064 3064 3062 3060 3060 3061 3063 3065 3067 3067 3068 3070 3071 3072 3072 3072 3071 3073 3075 3077 3079 3081 3085 3087 3088 3089 3087 3087 3090 3090 3092 3095 3096 3098 3101 3103 3104 3106 3109 3108 3106 3107 3108 3108 3109 3109 3109 3110 3112 3110 3105 3104 3106 3109 3113 3115 3116 3117 3118 3120 3121 3121 3123 3125 3126 3127 3129
3067 3067 3069 3072 3069 3063 3062 3063 3063 3063 3065 3066 3068 3068 3064 3059 3058 3061 3063 3064 3065 3062 3058 3057 3058 3058 3058 3060 3062 3064 3065 3066 3068 3070 3069 3068 3067 3066 3068 3070 3072 3076 3079 3081 3081 3084 3085 3081 3080 3085 3087 3089 3091 3092 3097 3100 3100 3102 3105 3104 3100 3098 3102 3106 3106 3107 3108 3108 3107 3106 3103 3101 3103 3104 3106 3109 3110 3111 3113 3114 3116 3118 3119 3122 3123 3123 3125 3126
3060 3062 3066 3067 3062 3058 3058 3058 3058 3059 3060 3061 3062 3059 3053 3054 3058 3061 3061 3061 3061 3058 3055 3054 3056 3056 3056 3057 3059 3061 3064 3064 3066 3066 3065 3064 3064 3063 3065 3066 3069 3071 3072 3075 3076 3079 3080 3076 3078 3084 3085 3086 3088 3090 3093 3094 3094 3097 3098 3094 3093 3098 3105 3106 3105 3105 3106 3105 3102 3100 3099 3099 3101 3101 3103 3105 3105 3106 3108 3110 3112 3113 3116 3120 3120 3120 3121 3122
3053 3056 3061 3062 3057 3055 3055 3054 3054 3055 3055 3056 3054 3050 3049 3052 3055 3057 3058 3058 3058 3058 3057 3056 3054 3054 3054 3055 3056 3058 3060 3061 3062 3062 3060 3061 3060 3059 3062 3064 3066 3068 3069 3072 3073 3075 3076 3074 3075 3080 3081 3082 3086 3089 3089 3090 3091 3091 3090 3090 3095 3100 3103 3103 3102 3102 3103 3102 3098 3095 3095 3097 3098 3098 3099 3101 3102 3103 3105 3106 3108 3109 3113 3116 3116 3116 3117 3118
3046 3050 3055 3056 3053 3052 3051 3049 3049 3050 3051 3049 3046 3045 3047 3048 3050 3054 3057 3058 3057 3056 3057 3056 3054 3053 3053 3053 3052 3054 3055 3056 3057 3058 3058 3056 3054 3054 3057 3060 3063 3065 3068 3071 3072 3073 3074 3073 3073 3076 3076 3079 3084 3086 3084 3085 3087 3088 3088 3091 3094 3094 3094 3096 3097 3097 3098 3098 3095 3092 3092 3092 3093 3093 3096 3098 3099 3100 3102 3103 3104 3106 3110 3112 3111 3112 3113 3115
3041 3045 3050 3051 3048 3047 3045 3044 3045 3045 3045 3043 3041 3042 3044 3045 3048 3052 3054 3055 3054 3053 3053 3054 3053 3051 3051 3051 3050 3049 3051 3052 3053 3054 3054 3052 3050 3050 3054 3057 3059 3062 3066 3069 3068 3070 3072 3071 3069 3072 3074 3077 3079 3078 3076 3077 3082 3085 3087 3088 3089 3088 3088 3090 3090 3089 3092 3093 3092 3091 3089 3086 3086 3090 3094 3095 3096 3097 3098 3099 3101 3103 3106 3107 3107 3109 3110 3112
3039 3041 3046 3046 3042 3040 3040 3040 3042 3042 3039 3037 3038 3041 3042 3043 3046 3048 3051 3052 3052 3051 3049 3050 3051 3049 3047 3048 3048 3047 3048 3049 3049 3049 3049 3048 3048 3048 3051 3054 3055 3058 3063 3065 3064 3066 3069 3068 3065 3068 3072 3071 3068 3067 3068 3072 3076 3078 3079 3080 3081 3083 3084 3086 3085 3084 3086 3087 3088 3089 3085 3080 3082 3088 3091 3092 3094 3095 3096 3096 3098 3099 3101 3103 3104 3105 3107 3109
3037 3038 3042 3042 3036 3033 3036 3038 3039 3038 3036 3036 3038 3040 3040 3042 3044 3045 3048 3049 3049 3049 3048 3047 3048 3048 3046 3045 3045 3046 3045 3044 3046 3046 3044 3044 3045 3047 3050 3054 3055 3056 3058 3060 3060 3061 3063 3063 3063 3064 3065 3062 3061 3064 3067 3069 3071 3072 3072 3072 3075 3078 3080 3081 3080 3079 3081 3083 3083 3085 3081 3076 3080 3086 3088 3090 3092 3093 3094 3094 3094 3096 3097 3099 3101 3103 3105 3107
3036 3036 3038 3037 3031 3029 3032 3035 3036 3035 3035 3035 3037 3038 3039 3041 3041 3042 3044 3046 3046 3046 3046 3045 3044 3046 3047 3044 3041 3043 3043 3040 3040 3041 3040 3040 3042 3044 3049 3052 3052 3053 3053 3052 3052 3055 3058 3059 3058 3058 3058 3057 3060 3064 3065 3066 3068 3070 3069 3070 3073 3075 3075 3075 3075 3077 3079 3079 3079 3081 3078 3073 3076 3083 3085 3087 3089 3090 3091 3092 3092 3092 3094 3096 3098 3100 3103 3105
3035 3033 3034 3033 3028 3026 3028 3030 3032 3033 3032 3033 3034 3035 3036 3037 3038 3040 3042 3043 3043 3042 3042 3042 3042 3043 3043 3040 3038 3039 3038 3035 3035 3036 3035 3036 3038 3040 3042 3042 3042 3045 3047 3047 3048 3052 3054 3053 3052 3053 3055 3056 3057 3059 3061 3062 3064 3064 3063 3066 3069 3070 3070 3072 3074 3075 3076 3074 3076 3079 3074 3068 3072 3080 3084 3085 3086 3086 3088 3089 3089 3089 3090 3092 3094 3096 3099 3102
3033 3032 3031 3031 3027 3025 3026 3028 3029 3028 3028 3028 3028 3028 3029 3032 3034 3037 3038 3038 3037 3038 3038 3038 3038 3038 3036 3035 3034 3035 3035 3032 3030 3030 3031 3030 3030 3032 3034 3034 3035 3038 3041 3042 3045 3048 3047 3045 3046 3049 3052 3052 3052 3052 3053 3055 3057 3056 3056 3060 3063 3065 3069 3070 3071 3073 3072 3069 3072 3074 3068 3065 3071 3078 3081 3083 3082 3081 3084 3086 3086 3086 3087 3089 3090 3093 3096 3099
3031 3029 3028 3028 3027 3025 3026 3027 3026 3025 3025 3024 3023 3024 3026 3027 3030 3031 3031 3031 3032 3034 3034 3034 3034 3032 3030 3030 3031 3031 3032 3030 3027 3026 3026 3024 3022 3024 3027 3029 3030 3032 3034 3035 3037 3038 3037 3036 3037 3039 3040 3041 3041 3040 3042 3046 3050 3051 3052 3055 3058 3061 3064 3065 3067 3069 3065 3065 3069 3068 3065 3067 3072 3075 3078 3080 3079 3077 3080 3083 3083 3084 3084 3085 3087 3091 3094 3096
3030 3028 3025 3024 3024 3024 3024 3026 3026 3025 3025 3023 3022 3023 3025 3025 3026 3027 3027 3028 3029 3031 3031 3030 3030 3028 3027 3027 3027 3026 3027 3027 3026 3023 3021 3021 3019 3019 3021 3024 3025 3027 3029 3032 3033 3032 3030 3029 3028 3027 3028 3030 3032 3035 3039 3043 3046 3047 3049 3051 3054 3057 3059 3061 3063 3060 3058 3063 3066 3063 3065 3068 3070 3072 3075 3076 3076 3075 3078 3080 3081 3082 3081 3081 3085 3090 3092 3094
3029 3028 3026 3023 3022 3022 3023 3024 3025 3024 3024 3023 3022 3022 3023 3023 3023 3024 3025 3026 3026 3027 3026 3026 3027 3026 3024 3023 3023 3022 3022 3022 3023 3021 3019 3017 3016 3014 3016 3020 3022 3023 3025 3028 3030 3030 3027 3024 3023 3022 3023 3026 3030 3035 3039 3040 3042 3044 3046 3048 3050 3053 3055 3056 3055 3053 3057 3062 3059 3058 3065 3067 3066 3070 3073 3073 3073 3074 3076 3077 3078 3079 3079 3080 3085 3089 3091 3093
3028 3028 3028 3026 3024 3022 3022 3022 3023 3022 3023 3023 3022 3022 3021 3021 3022 3022 3022 3022 3023 3024 3023 3022 3024 3024 3022 3021 3020 3019 3018 3017 3016 3017 3017 3015 3013 3011 3009 3013 3019 3021 3023 3025 3027 3027 3023 3020 3020 3021 3021 3023 3027 3031 3034 3036 3038 3040 3042 3044 3046 3049 3050 3050 3050 3052 3056 3056 3053 3057 3063 3063 3064 3069 3071 3071 3071 3072 3073 3075 3075 3077 3077 3079 3084 3086 3089 3092
3027 3026 3026 3026 3025 3023 3022 3022 3021 3021 3021 3021 3021 3021 3020 3020 3020 3020 3020 3020 3020 3022 3023 3021 3021 3020 3019 3019 3019 3017 3017 3015 3012 3012 3014 3014 3012 3010 3007 3007 3011 3017 3020 3021 3022 3023 3020 3017 3019 3019 3018 3019 3023 3026 3030 3032 3033 3036 3038 3039 3041 3044 3045 3047 3049 3051 3053 3052 3053 3059 3061 3060 3064 3067 3068 3070 3071 3070 3071 3072 3072 3074 3074 3077 3081 3084 3087 3090
3026 3025 3024 3024 3023 3022 3022 3021 3020 3019 3019 3019 3019 3019 3019 3018 3018 3018 3019 3018 3017 3018 3020 3019 3017 3016 3015 3016 3016 3016 3016 3015 3012 3010 3012 3012 3011 3012 3010 3006 3006 3010 3015 3017 3018 3019 3018 3015 3015 3016 3015 3015 3017 3021 3025 3027 3028 3032 3034 3036 3038 3039 3041 3044 3046 3048 3050 3050 3053 3057 3056 3057 3061 3065 3065 3068 3069 3068 3069 3070 3070 3071 3072 3074 3078 3082 3084 3085
3024 3024 3023 3022 3020 3020 3020 3020 3019 3017 3016 3017 3018 3017 3016 3016 3016 3015 3015 3016 3016 3016 3016 3015 3014 3013 3012 3012 3013 3014 3013 3013 3010 3008 3010 3010 3009 3011 3010 3007 3007 3008 3010 3014 3016 3016 3016 3013 3012 3013 3012 3010 3012 3017 3020 3023 3026 3028 3028 3030 3033 3035 3037 3039 3042 3045 3047 3049 3051 3052 3051 3052 3058 3062 3061 3062 3064 3065 3066 3069 3070 3070 3071 3073 3075 3077 3079 3080
3023 3022 3022 3020 3018 3018 3018 3018 3017 3016 3015 3016 3016 3015 3014 3014 3014 3014 3012 3012 3014 3014 3013 3012 3012 3011 3010 3009 3011 3012 3010 3008 3006 3005 3006 3007 3008 3009 3008 3007 3009 3009 3008 3012 3014 3014 3014 3013 3011 3012 3011 3008 3008 3012 3016 3022 3024 3019 3017 3022 3028 3032 3034 3036 3039 3042 3044 3046 3046 3046 3046 3049 3055 3057 3057 3058 3061 3063 3065 3068 3069 3070 3071 3072 3073 3075 3077 3077